TimeEDT,TemperatureF,Dew PointF,Humidity,Sea Level PressureIn,VisibilityMPH,Wind Direction,Wind SpeedMPH,Gust SpeedMPH,PrecipitationIn,Events,Conditions,WindDirDegrees,DateUTC
12:41 AM,51.8,-9999,N/A,29.73,7.0,Calm,Calm,-,0.00,,Overcast,0,2013-03-13 04:41:00
12:48 AM,51.8,-9999,N/A,29.74,8.0,WSW,8.1,-,0.00,,Overcast,240,2013-03-13 04:48:00
12:53 AM,52.0,-9999,N/A,29.73,9.0,West,5.8,-,0.00,,Overcast,260,2013-03-13 04:53:00
1:01 AM,51.8,-9999,N/A,29.73,10.0,West,8.1,-,N/A,,Overcast,280,2013-03-13 05:01:00
1:12 AM,51.8,-9999,N/A,29.73,9.0,WNW,8.1,-,N/A,,Overcast,290,2013-03-13 05:12:00
1:44 AM,48.2,-9999,N/A,29.73,10.0,WNW,10.4,-,N/A,,Overcast,290,2013-03-13 05:44:00
1:51 AM,48.2,-9999,N/A,29.74,10.0,WNW,12.7,18.4,N/A,,Overcast,300,2013-03-13 05:51:00
1:53 AM,48.0,-9999,N/A,29.74,10.0,NW,12.7,18.4,N/A,,Overcast,310,2013-03-13 05:53:00
2:08 AM,46.4,-9999,N/A,29.75,10.0,WNW,10.4,-,N/A,,Mostly Cloudy,290,2013-03-13 06:08:00
3:53 AM,44.1,-9999,N/A,29.75,10.0,West,4.6,-,N/A,,Overcast,270,2013-03-13 07:53:00
4:53 AM,43.0,-9999,N/A,29.76,10.0,WNW,8.1,-,N/A,,Overcast,290,2013-03-13 08:53:00
5:53 AM,41.0,-9999,N/A,29.77,10.0,WNW,4.6,-,N/A,,Clear,290,2013-03-13 09:53:00
6:53 AM,39.0,39.0,100,29.76,10.0,WNW,5.8,-,N/A,,Clear,300,2013-03-13 10:53:00
7:53 AM,39.9,37.0,89,29.77,10.0,WNW,8.1,-,N/A,,Clear,300,2013-03-13 11:53:00
8:53 AM,42.1,35.1,76,29.77,10.0,Variable,4.6,-,N/A,,Clear,0,2013-03-13 12:53:00
9:53 AM,44.1,34.0,68,29.76,10.0,WNW,9.2,-,N/A,,Clear,300,2013-03-13 13:53:00
10:53 AM,45.0,34.0,65,29.74,10.0,WNW,12.7,-,N/A,,Clear,300,2013-03-13 14:53:00
11:53 AM,46.9,33.1,59,29.75,10.0,WNW,11.5,17.3,N/A,,Clear,290,2013-03-13 15:53:00
12:53 PM,50.0,30.9,48,29.74,10.0,WNW,10.4,-,N/A,,Partly Cloudy,300,2013-03-13 16:53:00
1:53 PM,50.0,30.9,48,29.71,10.0,NW,10.4,-,N/A,,Clear,320,2013-03-13 17:53:00
2:53 PM,50.0,28.9,44,29.71,10.0,WNW,15.0,21.9,N/A,,Clear,300,2013-03-13 18:53:00
3:53 PM,51.1,26.1,38,29.70,10.0,West,8.1,19.6,N/A,,Clear,280,2013-03-13 19:53:00
4:53 PM,51.1,24.1,35,29.70,10.0,WNW,13.8,23.0,N/A,,Clear,290,2013-03-13 20:53:00
5:53 PM,48.9,19.0,31,29.71,10.0,WNW,15.0,24.2,N/A,,Clear,300,2013-03-13 21:53:00
6:53 PM,46.9,19.9,34,29.74,10.0,WNW,15.0,21.9,N/A,,Clear,290,2013-03-13 22:53:00
7:53 PM,44.1,21.0,40,29.77,10.0,WNW,9.2,-,N/A,,Clear,300,2013-03-13 23:53:00
8:53 PM,42.1,21.0,43,29.78,10.0,WNW,6.9,-,N/A,,Clear,290,2013-03-14 00:53:00
9:53 PM,39.0,28.0,65,29.79,10.0,Calm,Calm,-,N/A,,Clear,0,2013-03-14 01:53:00
10:53 PM,35.1,34.0,96,29.78,10.0,Calm,Calm,-,N/A,,Clear,0,2013-03-14 02:53:00
11:53 PM,32.0,32.0,100,29.78,10.0,Calm,Calm,-,N/A,,Clear,0,2013-03-14 03:53:00